Back to catalog

THOR ABLESTAR DEB

AliveLEO
NORAD 541·DEBRIS·🇺🇸 United States

Launched Jun 29, 1961 from Cape Canaveral Space Force Station

Loading…

Next Passes (next 24 hours)

TLE

FreshSource: Space-Track

Epoch: Sep 14, 2026, 04:45 UTC

1 00541U 61015GA  26257.19814253  .00000116  00000-0  15911-3 0  9996
2 00541  67.2183 191.5672 0079906 209.3372 150.3211 13.86417878284669

Track THOR ABLESTAR DEB in real time with AllMySat

Download on the App Store